Location: Alando
(42.3054°N, 9.2895°E)
Time: 09:07:21
(UTC+00:00)

Cosmos 1812 Rocket - Pass Details

Date: 09 April 2020
Orbit: 606 x 631 km, 82.5° (Epoch: 04 June)

Event Time Altitude Azimuth Distance (km) Brightness Sun altitude
Exits shadow 19:25:22 28° 97° (E) 1,160 4.4 -16.0°
Maximum altitude 19:25:40 28° 90° (E) 1,153 4.4 -16.1°
Drops below altitude 10° 19:29:22 10° 31° (NNE) 1,966 6.1 -16.7°
Sets 19:31:49 0° 20° (NNE) 2,874 7.1 -17.1°
